QPF
0.00 0.00 0.00 0.00 0.00 0.00 0.00 0.00 0.00 0.01 0.01 0.01 0.00 0.00 0.00 0.01 0.01 0.01 0.02 0.04 0.10 0.15 0.14 0.14 0.14 0.10 0.12 0.13 0.14 0.15 0.12 0.13 0.15 0.16 0.17 0.20 0.18 0.16 0.15 0.13 0.08 0.06 0.07 0.06
0.00 0.00 0.00 0.00 0.00 0.00 0.00 0.00 0.00 0.00 0.01 0.01 0.00 0.00 0.01 0.01 0.02 0.02 0.03 0.04 0.08 0.14 0.19 0.15 0.16 0.10 0.09 0.11 0.14 0.17 0.17 0.17 0.17 0.17 0.18 0.20 0.21 0.18 0.15 0.13 0.10 0.09 0.08 0.07
0.00 0.00 0.00 0.00 0.00 0.00 0.00 0.00 0.00 0.00 0.00 0.01 0.00 0.00 0.01 0.01 0.02 0.03 0.06 0.07 0.08 0.07 0.07 0.08 0.08 0.07 0.07 0.09 0.14 0.18 0.21 0.26 0.25 0.22 0.21 0.18 0.18 0.20 0.18 0.15 0.13 0.11 0.09 0.09
0.00 0.00 0.00 0.00 0.00 0.00 0.00 0.00 0.00 0.00 0.00 0.00 0.01 0.00 0.01 0.02 0.03 0.04 0.06 0.08 0.08 0.08 0.07 0.07 0.09 0.11 0.11 0.11 0.12 0.16 0.20 0.21 0.20 0.16 0.13 0.10 0.09 0.11 0.13 0.12 0.10 0.10 0.09 0.09
0.00 0.00 0.00 0.00 0.00 0.00 0.00 0.00 0.00 0.00 0.00 0.00 0.00 0.00 0.02 0.05 0.04 0.06 0.08 0.06 0.05 0.06 0.10 0.12 0.14 0.16 0.15 0.11 0.11 0.13 0.15 0.19 0.17 0.10 0.09 0.10 0.09 0.09 0.13 0.13 0.12 0.12 0.11 0.11
0.00 0.00 0.00 0.00 0.00 0.00 0.00 0.00 0.00 0.00 0.00 0.00 0.01 0.01 0.02 0.05 0.06 0.07 0.08 0.07 0.05 0.06 0.10 0.14 0.19 0.16 0.14 0.10 0.09 0.08 0.11 0.15 0.19 0.17 0.11 0.10 0.10 0.10 0.11 0.11 0.10 0.10 0.12 0.13
0.00 0.00 0.00 0.00 0.00 0.00 0.00 0.00 0.00 0.00 0.00 0.01 0.02 0.02 0.03 0.07 0.07 0.07 0.06 0.07 0.07 0.07 0.05 0.06 0.08 0.07 0.06 0.06 0.06 0.07 0.07 0.09 0.14 0.17 0.14 0.09 0.08 0.10 0.11 0.11 0.08 0.08 0.08 0.09
0.00 0.00 0.00 0.00 0.00 0.00 0.00 0.00 0.00 0.02 0.02 0.03 0.04 0.04 0.09 0.13 0.10 0.07 0.08 0.08 0.05 0.05 0.05 0.04 0.04 0.05 0.04 0.03 0.04 0.05 0.06 0.07 0.12 0.15 0.16 0.15 0.10 0.09 0.10 0.11 0.09 0.08 0.06 0.06
0.00 0.00 0.00 0.00 0.00 0.00 0.00 0.00 0.00 0.01 0.01 0.03 0.04 0.06 0.10 0.16 0.16 0.09 0.07 0.08 0.07 0.05 0.05 0.04 0.03 0.04 0.04 0.03 0.03 0.03 0.02 0.03 0.06 0.12 0.15 0.14 0.10 0.09 0.08 0.09 0.10 0.08 0.06 0.05
0.00 0.00 0.00 0.00 0.00 0.00 0.00 0.00 0.00 0.00 0.01 0.02 0.05 0.08 0.11 0.14 0.14 0.09 0.09 0.07 0.06 0.06 0.06 0.06 0.05 0.05 0.03 0.02 0.02 0.02 0.01 0.02 0.04 0.09 0.14 0.13 0.11 0.08 0.06 0.05 0.07 0.08 0.07 0.06
0.00 0.00 0.00 0.00 0.00 0.00 0.00 0.00 0.00 0.00 0.00 0.02 0.06 0.06 0.06 0.09 0.10 0.13 0.13 0.10 0.08 0.08 0.08 0.06 0.05 0.04 0.03 0.03 0.02 0.01 0.01 0.03 0.04 0.07 0.11 0.13 0.11 0.09 0.07 0.05 0.05 0.06 0.07 0.08
0.00 0.00 0.00 0.00 0.00 0.00 0.00 0.00 0.00 0.01 0.01 0.01 0.04 0.05 0.04 0.06 0.11 0.15 0.14 0.10 0.09 0.07 0.07 0.06 0.04 0.03 0.03 0.03 0.02 0.01 0.01 0.03 0.03 0.06 0.10 0.13 0.12 0.09 0.08 0.05 0.04 0.06 0.07 0.10
0.00 0.00 0.00 0.00 0.01 0.01 0.01 0.01 0.00 0.01 0.01 0.01 0.03 0.04 0.03 0.03 0.10 0.14 0.12 0.11 0.13 0.10 0.08 0.07 0.05 0.04 0.04 0.04 0.03 0.02 0.01 0.02 0.02 0.05 0.09 0.12 0.12 0.10 0.08 0.05 0.05 0.06 0.09 0.11
0.00 0.00 0.00 0.00 0.01 0.01 0.01 0.01 0.01 0.01 0.01 0.01 0.01 0.03 0.03 0.03 0.08 0.12 0.11 0.14 0.19 0.16 0.14 0.09 0.05 0.04 0.04 0.05 0.04 0.03 0.02 0.02 0.03 0.05 0.07 0.09 0.11 0.10 0.08 0.07 0.07 0.08 0.11 0.13
0.00 0.00 0.00 0.00 0.00 0.01 0.01 0.01 0.01 0.00 0.00 0.01 0.02 0.02 0.03 0.03 0.07 0.09 0.09 0.11 0.14 0.15 0.12 0.07 0.04 0.04 0.05 0.09 0.05 0.02 0.02 0.02 0.03 0.06 0.06 0.07 0.09 0.08 0.08 0.08 0.09 0.10 0.12 0.14
0.01 0.00 0.00 0.00 0.01 0.01 0.01 0.01 0.00 0.00 0.00 0.01 0.01 0.03 0.04 0.04 0.06 0.12 0.11 0.09 0.11 0.13 0.09 0.06 0.04 0.04 0.04 0.03 0.03 0.03 0.03 0.03 0.04 0.07 0.07 0.06 0.07 0.07 0.07 0.08 0.09 0.10 0.11 0.12
0.01 0.01 0.00 0.01 0.01 0.02 0.02 0.01 0.01 0.01 0.01 0.02 0.03 0.03 0.04 0.06 0.07 0.10 0.11 0.12 0.10 0.09 0.07 0.06 0.06 0.06 0.06 0.04 0.05 0.04 0.03 0.03 0.03 0.05 0.05 0.06 0.06 0.06 0.06 0.07 0.09 0.09 0.09 0.10
0.02 0.01 0.01 0.01 0.01 0.02 0.03 0.02 0.01 0.01 0.02 0.03 0.03 0.04 0.04 0.06 0.07 0.11 0.15 0.11 0.08 0.09 0.10 0.10 0.10 0.11 0.10 0.07 0.06 0.07 0.05 0.05 0.06 0.06 0.07 0.06 0.06 0.06 0.06 0.07 0.08 0.08 0.07 0.08
0.02 0.03 0.02 0.02 0.02 0.02 0.03 0.02 0.01 0.02 0.05 0.05 0.05 0.03 0.04 0.05 0.06 0.08 0.10 0.07 0.07 0.08 0.10 0.13 0.14 0.14 0.14 0.12 0.10 0.09 0.06 0.07 0.08 0.07 0.06 0.07 0.08 0.08 0.08 0.08 0.09 0.08 0.08 0.08
0.02 0.04 0.06 0.04 0.03 0.03 0.03 0.02 0.01 0.02 0.08 0.06 0.06 0.04 0.04 0.04 0.06 0.07 0.05 0.05 0.05 0.05 0.06 0.07 0.10 0.18 0.21 0.20 0.17 0.14 0.10 0.08 0.07 0.07 0.06 0.08 0.08 0.09 0.10 0.11 0.12 0.13 0.12 0.13
0.05 0.04 0.05 0.06 0.05 0.05 0.03 0.01 0.01 0.04 0.08 0.06 0.07 0.06 0.04 0.04 0.05 0.05 0.06 0.05 0.05 0.03 0.04 0.06 0.08 0.17 0.20 0.21 0.24 0.23 0.18 0.10 0.09 0.10 0.11 0.12 0.13 0.12 0.12 0.12 0.12 0.15 0.16 0.16
0.07 0.05 0.05 0.06 0.07 0.07 0.03 0.02 0.03 0.05 0.05 0.06 0.06 0.06 0.05 0.06 0.10 0.06 0.07 0.08 0.05 0.04 0.05 0.07 0.08 0.10 0.15 0.18 0.23 0.27 0.24 0.15 0.13 0.13 0.14 0.15 0.15 0.15 0.13 0.12 0.12 0.12 0.13 0.13
0.08 0.08 0.08 0.07 0.06 0.06 0.03 0.02 0.02 0.02 0.04 0.05 0.06 0.05 0.05 0.05 0.09 0.07 0.06 0.09 0.06 0.04 0.06 0.09 0.10 0.11 0.14 0.17 0.24 0.24 0.25 0.25 0.24 0.22 0.19 0.17 0.16 0.16 0.18 0.19 0.17 0.14 0.13 0.12
0.11 0.09 0.10 0.09 0.07 0.05 0.03 0.02 0.02 0.02 0.04 0.05 0.05 0.05 0.05 0.05 0.05 0.07 0.06 0.06 0.06 0.09 0.10 0.12 0.12 0.14 0.17 0.19 0.23 0.22 0.23 0.24 0.26 0.25 0.22 0.20 0.18 0.17 0.15 0.17 0.18 0.16 0.12 0.09
0.13 0.11 0.11 0.11 0.10 0.07 0.04 0.02 0.02 0.02 0.03 0.04 0.05 0.05 0.06 0.05 0.05 0.04 0.04 0.05 0.07 0.10 0.11 0.12 0.13 0.14 0.15 0.16 0.18 0.18 0.20 0.20 0.20 0.20 0.19 0.18 0.16 0.14 0.12 0.10 0.11 0.11 0.10 0.09
0.09 0.08 0.09 0.09 0.09 0.07 0.04 0.02 0.02 0.02 0.03 0.04 0.05 0.06 0.05 0.05 0.05 0.04 0.04 0.05 0.06 0.08 0.12 0.12 0.13 0.14 0.13 0.11 0.12 0.13 0.12 0.11 0.10 0.09 0.10 0.12 0.11 0.10 0.09 0.08 0.08 0.09 0.08 0.08
MSLP
1009.81 1010.60 1011.13 1011.37 1011.37 1011.21 1010.96 1010.70 1010.49 1010.33 1010.21 1010.08 1009.89 1009.61 1009.22 1008.73 1008.20 1007.68 1007.23 1006.92 1006.77 1006.80 1006.97 1007.25 1007.59 1007.96 1008.32 1008.67 1009.03 1009.40 1009.82 1010.30 1010.84 1011.41 1011.99 1012.54 1013.03 1013.43 1013.74 1013.99 1014.20 1014.43 1014.69 1015.03
1010.31 1010.89 1011.16 1011.18 1011.01 1010.78 1010.57 1010.46 1010.48 1010.61 1010.77 1010.89 1010.89 1010.72 1010.34 1009.81 1009.17 1008.53 1007.96 1007.54 1007.32 1007.28 1007.41 1007.64 1007.93 1008.23 1008.50 1008.77 1009.03 1009.33 1009.71 1010.18 1010.73 1011.33 1011.95 1012.53 1013.04 1013.43 1013.72 1013.93 1014.10 1014.29 1014.54 1014.87
1010.48 1010.81 1010.84 1010.64 1010.35 1010.10 1010.00 1010.11 1010.43 1010.89 1011.38 1011.78 1011.99 1011.92 1011.56 1010.96 1010.20 1009.40 1008.67 1008.12 1007.78 1007.66 1007.72 1007.91 1008.16 1008.40 1008.62 1008.82 1009.03 1009.28 1009.63 1010.09 1010.65 1011.28 1011.94 1012.55 1013.07 1013.46 1013.73 1013.91 1014.05 1014.20 1014.42 1014.75
1010.32 1010.41 1010.21 1009.85 1009.50 1009.30 1009.37 1009.75 1010.40 1011.22 1012.06 1012.74 1013.13 1013.16 1012.79 1012.08 1011.17 1010.18 1009.27 1008.54 1008.06 1007.84 1007.85 1007.99 1008.21 1008.43 1008.62 1008.79 1008.97 1009.19 1009.52 1009.97 1010.54 1011.20 1011.87 1012.51 1013.04 1013.45 1013.71 1013.87 1013.98 1014.12 1014.32 1014.63
1009.91 1009.78 1009.40 1008.95 1008.60 1008.51 1008.79 1009.47 1010.47 1011.64 1012.79 1013.72 1014.26 1014.33 1013.92 1013.08 1011.98 1010.78 1009.66 1008.75 1008.13 1007.81 1007.75 1007.87 1008.08 1008.30 1008.50 1008.66 1008.83 1009.04 1009.35 1009.79 1010.35 1011.00 1011.69 1012.34 1012.89 1013.31 1013.59 1013.76 1013.87 1013.99 1014.18 1014.48
1009.37 1009.06 1008.57 1008.08 1007.79 1007.86 1008.37 1009.34 1010.65 1012.12 1013.52 1014.63 1015.26 1015.33 1014.83 1013.84 1012.54 1011.14 1009.82 1008.74 1007.99 1007.59 1007.49 1007.60 1007.82 1008.07 1008.28 1008.45 1008.62 1008.81 1009.09 1009.50 1010.03 1010.66 1011.34 1012.00 1012.57 1013.01 1013.32 1013.52 1013.66 1013.80 1014.00 1014.29
1008.78 1008.36 1007.83 1007.37 1007.18 1007.42 1008.16 1009.37 1010.93 1012.61 1014.16 1015.36 1016.01 1016.03 1015.42 1014.27 1012.80 1011.22 1009.74 1008.53 1007.69 1007.24 1007.12 1007.25 1007.50 1007.78 1008.02 1008.21 1008.36 1008.53 1008.76 1009.12 1009.59 1010.18 1010.83 1011.48 1012.06 1012.55 1012.90 1013.16 1013.35 1013.53 1013.76 1014.06
1008.21 1007.75 1007.24 1006.86 1006.81 1007.21 1008.13 1009.51 1011.21 1013.00 1014.60 1015.80 1016.41 1016.33 1015.61 1014.33 1012.73 1011.04 1009.47 1008.20 1007.32 1006.85 1006.76 1006.92 1007.21 1007.52 1007.78 1007.97 1008.10 1008.22 1008.39 1008.67 1009.07 1009.58 1010.19 1010.81 1011.42 1011.94 1012.36 1012.69 1012.96 1013.20 1013.47 1013.80
1007.67 1007.23 1006.80 1006.55 1006.63 1007.18 1008.22 1009.69 1011.42 1013.19 1014.75 1015.86 1016.37 1016.20 1015.38 1014.03 1012.38 1010.65 1009.08 1007.81 1006.96 1006.53 1006.48 1006.68 1007.00 1007.34 1007.61 1007.78 1007.88 1007.93 1008.02 1008.21 1008.51 1008.95 1009.49 1010.09 1010.69 1011.26 1011.75 1012.17 1012.52 1012.85 1013.18 1013.55
1007.12 1006.78 1006.49 1006.38 1006.60 1007.25 1008.34 1009.80 1011.47 1013.13 1014.55 1015.53 1015.91 1015.65 1014.78 1013.43 1011.82 1010.16 1008.66 1007.48 1006.71 1006.35 1006.34 1006.58 1006.92 1007.26 1007.52 1007.67 1007.71 1007.70 1007.70 1007.79 1008.00 1008.35 1008.82 1009.39 1010.00 1010.59 1011.15 1011.65 1012.10 1012.51 1012.92 1013.33
1006.53 1006.36 1006.23 1006.29 1006.65 1007.36 1008.43 1009.80 1011.32 1012.80 1014.03 1014.83 1015.09 1014.77 1013.92 1012.65 1011.16 1009.65 1008.31 1007.27 1006.62 1006.34 1006.38 1006.63 1006.97 1007.29 1007.51 1007.61 1007.60 1007.52 1007.46 1007.46 1007.59 1007.87 1008.28 1008.81 1009.41 1010.03 1010.63 1011.20 1011.73 1012.22 1012.69 1013.16
1005.92 1005.94 1006.02 1006.25 1006.71 1007.45 1008.47 1009.69 1011.01 1012.26 1013.27 1013.90 1014.06 1013.73 1012.95 1011.82 1010.53 1009.24 1008.10 1007.25 1006.71 1006.51 1006.57 1006.81 1007.10 1007.37 1007.54 1007.58 1007.52 1007.41 1007.29 1007.25 1007.33 1007.55 1007.92 1008.41 1008.99 1009.62 1010.25 1010.86 1011.45 1012.00 1012.52 1013.02
1005.33 1005.57 1005.86 1006.25 1006.80 1007.54 1008.46 1009.51 1010.60 1011.61 1012.40 1012.88 1012.98 1012.68 1012.02 1011.09 1010.04 1009.00 1008.09 1007.41 1006.99 1006.83 1006.87 1007.05 1007.27 1007.45 1007.55 1007.55 1007.46 1007.32 1007.20 1007.15 1007.21 1007.41 1007.75 1008.21 1008.77 1009.38 1010.01 1010.64 1011.24 1011.82 1012.37 1012.89
1004.86 1005.31 1005.79 1006.32 1006.93 1007.65 1008.46 1009.33 1010.19 1010.97 1011.57 1011.92 1011.99 1011.75 1011.25 1010.56 1009.77 1008.98 1008.28 1007.75 1007.40 1007.24 1007.23 1007.31 1007.42 1007.49 1007.52 1007.47 1007.37 1007.25 1007.16 1007.14 1007.22 1007.43 1007.76 1008.20 1008.72 1009.29 1009.90 1010.50 1011.10 1011.67 1012.22 1012.74
1004.62 1005.24 1005.87 1006.51 1007.16 1007.83 1008.52 1009.21 1009.85 1010.42 1010.86 1011.12 1011.19 1011.05 1010.72 1010.26 1009.71 1009.16 1008.65 1008.22 1007.91 1007.71 1007.60 1007.54 1007.51 1007.47 1007.41 1007.33 1007.24 1007.17 1007.15 1007.20 1007.34 1007.58 1007.91 1008.33 1008.81 1009.33 1009.88 1010.43 1010.99 1011.53 1012.05 1012.56
1004.68 1005.43 1006.16 1006.85 1007.50 1008.10 1008.65 1009.17 1009.62 1010.02 1010.32 1010.53 1010.61 1010.58 1010.42 1010.17 1009.85 1009.49 1009.12 1008.77 1008.45 1008.17 1007.93 1007.73 1007.55 1007.40 1007.26 1007.16 1007.10 1007.09 1007.15 1007.29 1007.51 1007.79 1008.14 1008.54 1008.97 1009.43 1009.90 1010.39 1010.88 1011.37 1011.85 1012.32
1005.08 1005.87 1006.63 1007.32 1007.92 1008.43 1008.85 1009.20 1009.49 1009.73 1009.94 1010.11 1010.23 1010.30 1010.30 1010.23 1010.10 1009.89 1009.63 1009.31 1008.97 1008.60 1008.23 1007.87 1007.56 1007.29 1007.10 1006.98 1006.96 1007.02 1007.17 1007.41 1007.70 1008.03 1008.39 1008.77 1009.16 1009.55 1009.94 1010.34 1010.76 1011.18 1011.62 1012.05
1005.77 1006.54 1007.25 1007.87 1008.38 1008.76 1009.04 1009.24 1009.39 1009.52 1009.65 1009.80 1009.96 1010.12 1010.26 1010.35 1010.36 1010.28 1010.09 1009.80 1009.42 1008.97 1008.48 1008.01 1007.57 1007.22 1006.97 1006.85 1006.86 1006.99 1007.22 1007.53 1007.89 1008.26 1008.63 1008.99 1009.33 1009.65 1009.97 1010.29 1010.64 1011.01 1011.40 1011.80
1006.64 1007.31 1007.91 1008.41 1008.78 1009.03 1009.16 1009.22 1009.25 1009.29 1009.37 1009.51 1009.71 1009.95 1010.20 1010.42 1010.55 1010.57 1010.45 1010.19 1009.79 1009.29 1008.72 1008.16 1007.64 1007.23 1006.95 1006.82 1006.86 1007.03 1007.32 1007.68 1008.07 1008.47 1008.84 1009.17 1009.46 1009.73 1009.99 1010.25 1010.55 1010.87 1011.23 1011.61
1007.55 1008.06 1008.50 1008.84 1009.05 1009.15 1009.14 1009.09 1009.02 1008.99 1009.04 1009.18 1009.42 1009.73 1010.08 1010.40 1010.63 1010.74 1010.69 1010.47 1010.08 1009.57 1008.98 1008.37 1007.82 1007.37 1007.08 1006.95 1006.99 1007.18 1007.48 1007.86 1008.26 1008.66 1009.01 1009.32 1009.58 1009.81 1010.02 1010.25 1010.52 1010.82 1011.16 1011.54
1008.35 1008.68 1008.94 1009.10 1009.16 1009.11 1008.99 1008.83 1008.69 1008.62 1008.65 1008.81 1009.09 1009.45 1009.87 1010.27 1010.60 1010.79 1010.82 1010.66 1010.33 1009.85 1009.28 1008.68 1008.13 1007.69 1007.38 1007.24 1007.27 1007.45 1007.74 1008.10 1008.48 1008.85 1009.17 1009.45 1009.69 1009.90 1010.10 1010.32 1010.58 1010.88 1011.23 1011.61
1008.97 1009.12 1009.20 1009.20 1009.10 1008.93 1008.72 1008.49 1008.32 1008.23 1008.26 1008.44 1008.75 1009.16 1009.63 1010.10 1010.50 1010.78 1010.89 1010.81 1010.56 1010.16 1009.66 1009.12 1008.60 1008.17 1007.87 1007.72 1007.72 1007.86 1008.10 1008.41 1008.74 1009.06 1009.36 1009.61 1009.83 1010.04 1010.25 1010.48 1010.75 1011.07 1011.43 1011.82
1009.37 1009.36 1009.29 1009.15 1008.95 1008.69 1008.42 1008.16 1007.97 1007.89 1007.94 1008.14 1008.48 1008.93 1009.44 1009.96 1010.43 1010.77 1010.97 1011.00 1010.85 1010.55 1010.14 1009.68 1009.23 1008.84 1008.55 1008.38 1008.34 1008.41 1008.58 1008.81 1009.08 1009.34 1009.59 1009.82 1010.04 1010.25 1010.48 1010.74 1011.04 1011.38 1011.77 1012.17
1009.58 1009.46 1009.28 1009.05 1008.77 1008.47 1008.18 1007.93 1007.76 1007.70 1007.78 1008.01 1008.38 1008.85 1009.39 1009.94 1010.45 1010.86 1011.14 1011.26 1011.22 1011.04 1010.74 1010.38 1010.00 1009.65 1009.37 1009.18 1009.09 1009.09 1009.18 1009.32 1009.50 1009.69 1009.90 1010.10 1010.32 1010.54 1010.80 1011.09 1011.43 1011.80 1012.20 1012.62
1009.68 1009.49 1009.25 1008.97 1008.66 1008.35 1008.08 1007.86 1007.73 1007.72 1007.84 1008.10 1008.48 1008.97 1009.52 1010.09 1010.63 1011.09 1011.44 1011.65 1011.71 1011.64 1011.46 1011.19 1010.89 1010.59 1010.32 1010.10 1009.96 1009.88 1009.87 1009.92 1010.01 1010.14 1010.29 1010.48 1010.69 1010.93 1011.22 1011.54 1011.90 1012.29 1012.71 1013.13
1009.74 1009.52 1009.25 1008.96 1008.66 1008.38 1008.14 1007.98 1007.91 1007.95 1008.12 1008.41 1008.82 1009.32 1009.87 1010.45 1011.01 1011.50 1011.90 1012.18 1012.33 1012.36 1012.28 1012.10 1011.87 1011.60 1011.34 1011.10 1010.90 1010.74 1010.65 1010.61 1010.62 1010.68 1010.79 1010.95 1011.16 1011.41 1011.72 1012.06 1012.45 1012.85 1013.27 1013.68
Thickness
5794 5776 5766 5773 5779 5778 5778 5773 5772 5790 5813 5808 5800 5799 5806 5813 5812 5808 5805 5803 5800 5798 5798 5797 5794 5791 5785 5781 5776 5773 5768 5765 5762 5757 5754 5750 5749 5749 5750 5751 5751 5751 5751 5751
5772 5766 5782 5788 5788 5784 5778 5770 5774 5791 5810 5806 5795 5794 5801 5807 5806 5806 5803 5800 5798 5792 5790 5791 5789 5787 5782 5778 5774 5770 5767 5763 5759 5757 5754 5751 5749 5748 5748 5748 5749 5749 5750 5750
5761 5777 5792 5786 5781 5776 5776 5772 5777 5783 5798 5801 5790 5777 5786 5797 5805 5805 5804 5800 5798 5795 5790 5789 5786 5783 5780 5775 5772 5769 5765 5760 5757 5754 5751 5747 5744 5743 5742 5743 5745 5747 5748 5748
5767 5784 5786 5781 5779 5780 5767 5791 5792 5790 5778 5764 5777 5748 5770 5781 5789 5795 5796 5796 5795 5796 5792 5787 5784 5780 5776 5773 5771 5767 5762 5758 5755 5753 5750 5745 5742 5740 5741 5742 5744 5745 5746 5747
5765 5782 5779 5776 5785 5789 5782 5799 5794 5789 5775 5759 5762 5749 5754 5772 5775 5784 5791 5793 5794 5794 5793 5787 5783 5779 5775 5772 5769 5764 5760 5756 5754 5753 5750 5746 5743 5742 5741 5741 5741 5742 5744 5746
5773 5790 5789 5789 5799 5800 5799 5792 5782 5769 5754 5735 5749 5746 5743 5757 5769 5780 5789 5791 5791 5791 5788 5785 5783 5777 5772 5769 5766 5762 5758 5755 5753 5751 5749 5746 5743 5741 5739 5738 5738 5739 5741 5742
5759 5776 5792 5799 5785 5792 5788 5757 5730 5729 5718 5723 5747 5743 5743 5768 5779 5782 5785 5786 5788 5788 5784 5780 5777 5773 5769 5766 5763 5760 5756 5753 5752 5750 5747 5746 5744 5742 5740 5739 5738 5738 5738 5739
5737 5746 5781 5794 5786 5776 5776 5758 5725 5714 5712 5721 5739 5735 5751 5777 5784 5786 5787 5788 5786 5783 5781 5779 5777 5774 5770 5766 5762 5759 5755 5752 5751 5748 5746 5745 5744 5742 5741 5740 5740 5740 5740 5741
5738 5746 5787 5799 5804 5791 5772 5761 5760 5735 5728 5717 5723 5738 5756 5774 5777 5781 5782 5781 5779 5779 5778 5777 5774 5772 5769 5765 5762 5759 5755 5752 5750 5748 5746 5744 5743 5742 5741 5741 5741 5740 5740 5741
5755 5747 5773 5794 5799 5795 5787 5775 5748 5731 5714 5707 5718 5729 5735 5755 5763 5772 5774 5775 5776 5776 5776 5774 5773 5771 5768 5765 5762 5758 5756 5752 5750 5747 5745 5744 5743 5743 5742 5741 5740 5740 5740 5741
5761 5744 5756 5771 5770 5767 5772 5766 5751 5733 5726 5709 5705 5723 5760 5761 5765 5768 5771 5773 5773 5773 5773 5772 5772 5770 5767 5764 5761 5757 5754 5751 5748 5745 5743 5743 5742 5742 5741 5741 5741 5740 5739 5739
5761 5743 5736 5754 5776 5788 5777 5766 5750 5729 5725 5721 5713 5726 5772 5769 5769 5770 5771 5773 5774 5776 5773 5771 5770 5768 5765 5761 5758 5755 5753 5750 5748 5746 5743 5741 5741 5740 5739 5739 5740 5739 5738 5737
5758 5736 5721 5729 5745 5766 5766 5765 5758 5743 5729 5719 5713 5728 5766 5766 5766 5769 5770 5772 5775 5775 5772 5770 5768 5765 5763 5759 5756 5754 5752 5750 5748 5745 5743 5741 5740 5739 5738 5739 5739 5738 5737 5735
5764 5734 5725 5719 5729 5748 5753 5759 5759 5744 5723 5721 5727 5735 5749 5757 5761 5765 5768 5770 5771 5771 5771 5768 5765 5764 5762 5759 5756 5753 5751 5750 5748 5744 5741 5740 5739 5739 5738 5738 5737 5737 5736 5734
5752 5730 5737 5742 5752 5756 5754 5755 5758 5749 5741 5731 5736 5738 5747 5755 5759 5763 5766 5766 5767 5768 5768 5767 5765 5763 5761 5757 5754 5752 5750 5749 5748 5743 5740 5739 5739 5738 5737 5736 5735 5735 5733 5733
5735 5728 5731 5733 5747 5749 5746 5751 5754 5752 5750 5744 5741 5738 5752 5757 5759 5759 5761 5762 5762 5765 5766 5767 5765 5762 5759 5757 5754 5751 5749 5749 5747 5743 5740 5739 5737 5736 5735 5733 5733 5731 5729 5728
5719 5718 5712 5710 5730 5734 5723 5737 5741 5739 5742 5741 5731 5736 5746 5746 5749 5751 5754 5756 5758 5761 5763 5763 5762 5760 5757 5756 5754 5751 5749 5748 5745 5742 5739 5736 5734 5733 5731 5731 5728 5727 5725 5724
5712 5706 5698 5699 5709 5698 5715 5740 5744 5735 5733 5738 5738 5740 5742 5743 5745 5747 5748 5748 5750 5753 5755 5757 5757 5756 5756 5754 5752 5749 5746 5744 5742 5739 5736 5734 5732 5730 5728 5726 5724 5722 5721 5720
5711 5702 5691 5683 5686 5697 5715 5728 5730 5724 5715 5728 5731 5733 5736 5739 5738 5736 5740 5743 5743 5745 5748 5750 5752 5752 5752 5749 5748 5745 5741 5740 5737 5735 5733 5731 5730 5727 5724 5721 5719 5717 5716 5714
5700 5698 5686 5680 5680 5680 5698 5722 5734 5726 5702 5720 5724 5723 5727 5730 5717 5721 5731 5736 5737 5739 5741 5743 5747 5747 5745 5744 5743 5739 5735 5733 5732 5731 5730 5728 5726 5723 5720 5717 5715 5713 5711 5708
5676 5677 5674 5672 5673 5681 5701 5718 5724 5698 5695 5713 5717 5719 5720 5718 5716 5719 5724 5727 5729 5730 5732 5736 5738 5737 5737 5738 5737 5732 5728 5726 5727 5727 5725 5722 5720 5718 5715 5712 5710 5707 5704 5701
5661 5662 5663 5664 5663 5670 5698 5703 5696 5694 5704 5708 5710 5712 5712 5712 5712 5712 5713 5715 5718 5719 5721 5724 5725 5725 5727 5728 5728 5724 5719 5720 5720 5718 5716 5714 5713 5711 5708 5705 5702 5699 5697 5692
5657 5661 5661 5663 5665 5678 5689 5692 5694 5697 5697 5700 5701 5704 5705 5703 5701 5701 5702 5703 5705 5706 5709 5711 5712 5712 5713 5714 5716 5713 5711 5712 5711 5708 5705 5704 5703 5701 5699 5696 5693 5689 5686 5683
5655 5663 5660 5659 5665 5674 5679 5683 5685 5690 5691 5695 5696 5697 5697 5693 5692 5692 5691 5692 5693 5694 5696 5697 5699 5698 5698 5700 5701 5701 5701 5702 5701 5697 5695 5693 5691 5688 5686 5685 5683 5679 5675 5672
5650 5653 5652 5653 5658 5665 5670 5673 5676 5680 5683 5685 5686 5687 5686 5684 5682 5681 5680 5679 5680 5681 5682 5683 5683 5683 5683 5685 5687 5688 5689 5690 5688 5686 5684 5681 5679 5675 5671 5668 5666 5665 5662 5660
5645 5646 5646 5646 5654 5654 5656 5663 5668 5669 5670 5673 5674 5673 5673 5674 5672 5670 5668 5667 5668 5668 5668 5669 5669 5669 5670 5672 5673 5674 5676 5677 5676 5674 5671 5669 5666 5663 5660 5657 5652 5650 5649 5647